Location: Wellington
(41.3000°S, 174.7830°E)
Time: 05:12:22
(UTC+13:00)

Meteor 2-6 Rocket - Pass Details

Date: 24 January 2019
Orbit: 806 x 914 km, 81.3° (Epoch: 17 October)

Event Time Altitude Azimuth Distance (km) Brightness Sun altitude
Exits shadow 23:35:51 52° 71° (ENE) 1,004 4.2 -23.7°
Maximum altitude 23:36:13 53° 86° (E) 994 4.3 -23.7°
Drops below altitude 10° 23:41:31 10° 161° (SSE) 2,431 7.1 -24.2°
Sets 23:43:59 0° 165° (SSE) 3,378 8.0 -24.4°
